Change the Weather History Date:

Sunday, September 29, 2013

  Actual Average Record
Temperature  
Mean Temperature 60 °F -  
Max Temperature 77 °F 71 °F 136 °F (1997)
Min Temperature 42 °F 44 °F 26 °F (1967)
Degree Days  
Heating Degree Days 6    
Growing Degree Days 10 (Base 50)    
Moisture  
Dew Point 42 °F    
Average Humidity 59    
Maximum Humidity 100    
Minimum Humidity 26    
Precipitation  
Precipitation 0.00 in - - ()
Sea Level Pressure  
Sea Level Pressure 29.98 in    
Wind  
Wind Speed 6 mph (SSW)    
Max Wind Speed 22 mph    
Max Gust Speed 31 mph    
Visibility 10 miles    
Events      
Averages and records for this station are not official NWS values.
T = Trace of Precipitation, MM = Missing Value Source: NWS Daily Summary

Daily Weather History Graph

Daily Weather History Graph

Search for Another Location

Airport or City:

Trip Planner

Search our weather history database for the weather conditions in past years. The results will help you decide how hot, cold, wet, or windy it might be!

Date:

Astronomy

Sep. 29, 2013 Rise Set
Actual Time 7:14 AM CDT 7:03 PM CDT
Civil Twilight 6:46 AM CDT 7:31 PM CDT
Nautical Twilight 6:13 AM CDT 8:03 PM CDT
Astronomical Twilight 5:41 AM CDT 8:36 PM CDT
Moon 1:51 AM CDT (9/29) 4:04 PM CDT (9/29)
Length of Visible Light 12h 45m
Length of Day
11h 49m
Waning Crescent, 27% of the Moon is Illuminated
Sep 29
Waning Crescent
Oct 4
New
Oct 11
First Quarter
Oct 18
Full
Oct 26
Last Quarter

Hourly Weather History & Observations

Time (CDT) Temp. Windchill Dew Point Humidity Pressure Visibility Wind Dir Wind Speed Gust Speed Precip Events Conditions
12:15 AM 46.4 °F - 44.6 °F 93% 30.04 in 10.0 mi Calm Calm - N/A   Clear
12:35 AM 46.4 °F - 44.6 °F 93% 30.04 in 10.0 mi Calm Calm - N/A   Clear
12:55 AM 42.8 °F - 42.8 °F 100% 30.04 in 10.0 mi Calm Calm - N/A   Clear
1:15 AM 44.6 °F - 42.8 °F 93% 30.04 in 10.0 mi Calm Calm - N/A   Clear
1:35 AM 42.8 °F - 42.8 °F 100% 30.04 in 10.0 mi Calm Calm - N/A   Clear
1:55 AM 42.8 °F - 42.8 °F 100% 30.05 in 10.0 mi Calm Calm - N/A   Clear
2:15 AM 44.6 °F - 42.8 °F 93% 30.04 in 10.0 mi Calm Calm - N/A   Clear
2:35 AM 48.2 °F - 44.6 °F 87% 30.04 in 10.0 mi SW 5.8 mph - N/A   Clear
2:55 AM 48.2 °F - 44.6 °F 87% 30.04 in 10.0 mi Calm Calm - N/A   Clear
3:15 AM 46.4 °F - 42.8 °F 87% 30.04 in 10.0 mi Calm Calm - N/A   Clear
3:35 AM 48.2 °F - 44.6 °F 87% 30.03 in 10.0 mi SW 4.6 mph - N/A   Clear
3:55 AM 48.2 °F - 42.8 °F 82% 30.03 in 10.0 mi Calm Calm - N/A   Clear
4:15 AM 44.6 °F - 42.8 °F 93% 30.03 in 10.0 mi Calm Calm - N/A   Clear
4:35 AM 46.4 °F - 42.8 °F 87% 30.03 in 10.0 mi Calm Calm - N/A   Clear
4:55 AM 46.4 °F - 42.8 °F 87% 30.03 in 10.0 mi Calm Calm - N/A   Clear
5:15 AM 46.4 °F - 42.8 °F 87% 30.03 in 10.0 mi Calm Calm - N/A   Clear
5:35 AM 44.6 °F - 41.0 °F 87% 30.03 in 10.0 mi Calm Calm - N/A   Clear
5:55 AM 44.6 °F - 42.8 °F 93% 30.03 in 10.0 mi Calm Calm - N/A   Clear
6:15 AM 44.6 °F 43.1 °F 42.8 °F 93% 30.04 in 10.0 mi SW 3.5 mph - N/A   Clear
6:35 AM 44.6 °F - 41.0 °F 87% 30.04 in 10.0 mi Calm Calm - N/A   Clear
6:55 AM 44.6 °F - 41.0 °F 87% 30.04 in 10.0 mi Calm Calm - N/A   Clear
7:15 AM 46.4 °F - 42.8 °F 87% 30.04 in 10.0 mi Calm Calm - N/A   Clear
7:35 AM 48.2 °F - 42.8 °F 82% 30.04 in 10.0 mi SW 5.8 mph - N/A   Clear
7:55 AM 50.0 °F - 44.6 °F 82% 30.04 in 10.0 mi SW 8.1 mph - N/A   Clear
8:15 AM 53.6 °F - 44.6 °F 72% 30.04 in 10.0 mi SW 9.2 mph 16.1 mph N/A   Clear
8:35 AM 53.6 °F - 44.6 °F 72% 30.04 in 10.0 mi SSW 8.1 mph 15.0 mph N/A   Clear
8:55 AM 57.2 °F - 44.6 °F 63% 30.04 in 10.0 mi SW 10.4 mph - N/A   Clear
9:15 AM 59.0 °F - 44.6 °F 59% 30.04 in 10.0 mi SW 10.4 mph - N/A   Clear
9:35 AM 60.8 °F - 42.8 °F 52% 30.04 in 10.0 mi SW 13.8 mph 20.7 mph N/A   Clear
9:55 AM 62.6 °F - 42.8 °F 48% 30.04 in 10.0 mi SW 15.0 mph - N/A   Clear
10:15 AM 64.4 °F - 41.0 °F 42% 30.03 in 10.0 mi SW 15.0 mph 23.0 mph N/A   Clear
10:35 AM 66.2 °F - 41.0 °F 40% 30.03 in 10.0 mi SSW 18.4 mph 25.3 mph N/A   Clear
10:55 AM 68.0 °F - 41.0 °F 37% 30.03 in 10.0 mi SSW 20.7 mph - N/A   Clear
11:15 AM 68.0 °F - 41.0 °F 37% 30.02 in 10.0 mi SW 17.3 mph 24.2 mph N/A   Clear
11:35 AM 69.8 °F - 41.0 °F 35% 30.02 in 10.0 mi SW 15.0 mph 26.5 mph N/A   Clear
11:55 AM 71.6 °F - 39.2 °F 31% 30.01 in 10.0 mi SSW 19.6 mph 26.5 mph N/A   Clear
12:15 PM 71.6 °F - 39.2 °F 31% 30.00 in 10.0 mi SSW 17.3 mph 26.5 mph N/A   Clear
12:35 PM 73.4 °F - 39.2 °F 29% 30.00 in 10.0 mi SSW 18.4 mph - N/A   Clear
12:55 PM 73.4 °F - 41.0 °F 31% 29.99 in 10.0 mi SSW 17.3 mph 25.3 mph N/A   Clear
1:15 PM 75.2 °F - 41.0 °F 29% 29.98 in 10.0 mi SSW 16.1 mph 24.2 mph N/A   Clear
1:35 PM 75.2 °F - 41.0 °F 29% 29.96 in 10.0 mi SSW 17.3 mph 25.3 mph N/A   Clear
1:55 PM 75.2 °F - 39.2 °F 27% 29.95 in 10.0 mi SSW 17.3 mph 26.5 mph N/A   Clear
2:15 PM 75.2 °F - 41.0 °F 29% 29.94 in 10.0 mi South 19.6 mph 26.5 mph N/A   Clear
2:35 PM 75.2 °F - 39.2 °F 27% 29.93 in 10.0 mi SSW 17.3 mph 31.1 mph N/A   Clear
2:55 PM 75.2 °F - 39.2 °F 27% 29.92 in 10.0 mi South 21.9 mph 29.9 mph N/A   Clear
3:15 PM 75.2 °F - 41.0 °F 29% 29.92 in 10.0 mi South 18.4 mph 26.5 mph N/A   Clear
3:35 PM 75.2 °F - 39.2 °F 27% 29.92 in 10.0 mi SSW 17.3 mph 25.3 mph N/A   Clear
3:55 PM 77.0 °F - 39.2 °F 26% 29.92 in 10.0 mi SSW 18.4 mph 27.6 mph N/A   Clear
4:15 PM 75.2 °F - 39.2 °F 27% 29.91 in 10.0 mi SSW 18.4 mph 31.1 mph N/A   Clear
4:35 PM 75.2 °F - 39.2 °F 27% 29.90 in 10.0 mi SSW 20.7 mph 27.6 mph N/A   Clear
4:55 PM 75.2 °F - 39.2 °F 27% 29.90 in 10.0 mi SSW 19.6 mph 27.6 mph N/A   Clear
5:15 PM 75.2 °F - 39.2 °F 27% 29.90 in 10.0 mi SSW 17.3 mph 24.2 mph N/A   Clear
5:35 PM 75.2 °F - 39.2 °F 27% 29.90 in 10.0 mi South 17.3 mph - N/A   Clear
5:55 PM 73.4 °F - 39.2 °F 29% 29.90 in 10.0 mi SSW 15.0 mph 24.2 mph N/A   Clear
6:15 PM 71.6 °F - 41.0 °F 33% 29.89 in 10.0 mi South 15.0 mph - N/A   Clear
6:35 PM 69.8 °F - 41.0 °F 35% 29.89 in 10.0 mi South 10.4 mph - N/A   Clear
6:55 PM 68.0 °F - 42.8 °F 40% 29.89 in 10.0 mi South 10.4 mph - N/A   Clear
7:15 PM 66.2 °F - 42.8 °F 43% 29.89 in 10.0 mi South 10.4 mph - N/A   Clear
7:35 PM 64.4 °F - 42.8 °F 45% 29.89 in 10.0 mi South 8.1 mph - N/A   Clear
7:55 PM 62.6 °F - 44.6 °F 52% 29.90 in 10.0 mi South 8.1 mph - N/A   Clear
8:15 PM 62.6 °F - 44.6 °F 52% 29.89 in 10.0 mi South 12.7 mph - N/A   Clear
8:35 PM 62.6 °F - 44.6 °F 52% 29.90 in 10.0 mi South 11.5 mph - N/A   Clear
8:55 PM 60.8 °F - 44.6 °F 55% 29.90 in 10.0 mi South 10.4 mph - N/A   Clear
9:15 PM 60.8 °F - 44.6 °F 55% 29.91 in 10.0 mi South 8.1 mph - N/A   Clear
9:35 PM 59.0 °F - 44.6 °F 59% 29.91 in 10.0 mi South 8.1 mph - N/A   Clear
9:55 PM 57.2 °F - 46.4 °F 67% 29.90 in 10.0 mi South 8.1 mph - N/A   Clear
10:15 PM 55.4 °F - 46.4 °F 72% 29.90 in 10.0 mi South 5.8 mph - N/A   Clear
10:35 PM 53.6 °F - 46.4 °F 77% 29.90 in 10.0 mi South 6.9 mph - N/A   Clear
10:55 PM 53.6 °F - 46.4 °F 77% 29.91 in 10.0 mi SSW 5.8 mph - N/A   Clear
11:15 PM 55.4 °F - 46.4 °F 72% 29.92 in 10.0 mi SSW 6.9 mph - N/A   Clear
11:35 PM 55.4 °F - 46.4 °F 72% 29.91 in 10.0 mi South 9.2 mph - N/A   Clear
11:55 PM 55.4 °F - 46.4 °F 72% 29.91 in 10.0 mi South 9.2 mph - N/A   Clear